Zurück zum Katalog

COSMOS 1823 DEB

AktivLEO
NORAD 18755·DEBRIS·🇷🇺 Russia

Gestartet Feb 20, 1987 von Plesetsk Cosmodrome

Loading…

Nächste Überflüge (nächste 24 Stunden)

TLE

AktuellSource: Space-Track

Epoche: Sep 14, 2026, 03:47 UTC

1 18755U 87020AG  26257.15801414 -.00000052  00000-0 -25542-3 0  9999
2 18755  73.6388 313.1372 0033830  55.2959 334.1907 12.42511609756078

Verfolge COSMOS 1823 DEB in Echtzeit mit AllMySat

Download on the App Store